Regional Weather Roundup
Issued by NWS

Home | Current Version | Previous Version | Text Only | Print | Product List | Glossary Off
Versions: 1 2 3 4 5 6 7 8 9 10 11 12 13 14 15 16 17 18 19 20 21 22 23 24 25 26 27 28 29 30 31 32 33 34 35 36 37 38 39 40 41 42 43 44 45 46 47 48 49 50

000
ASUS43 KLOT 300303
RWRIL

ILLINOIS REGIONAL WEATHER ROUNDUP
NATIONAL WEATHER SERVICE CHICAGO/ROMEOVILLE IL
1000 PM CDT FRI JUL 29 2016

NOTE: "FAIR" INDICATES FEW OR NO CLOUDS BELOW 12,000 FEET WITH NO
SIGNIFICANT WEATHER AND/OR OBSTRUCTIONS TO VISIBILITY.

* THESE STATIONS ARE NOT UNDER NWS QUALITY CONTROL. THEY ALSO MAY NOT
  REPORT WEATHER SUCH AS PRECIPITATION OR FOG.

ILZ001-002-007-009-015-016-024-300400-
NORTHWEST ILLINOIS

CITY           SKY/WX    TMP DP  RH WIND       PRES   REMARKS
MOLINE         CLOUDY    71  66  84 E8        29.95R
STERLING*      CLOUDY    70  68  93 NE6       29.97R
SAVANNA*       CLOUDY    69  66  91 E3        29.96S
$$

ILZ003-004-008-010-011-017-018-300400-
NORTH CENTRAL ILLINOIS

CITY           SKY/WX    TMP DP  RH WIND       PRES   REMARKS
ROCKFORD       CLOUDY    69  65  86 NE9       29.98S
FREEPORT*      CLOUDY    67  65  94 NE5       30.00R
ROCHELLE*      CLOUDY    67  67  97 NE8       29.98R
DE KALB*       CLOUDY    69  67  95 N5        29.98R
$$

ILZ005-006-012>014-019>023-300400-
NORTHEAST ILLINOIS

CITY           SKY/WX    TMP DP  RH WIND       PRES   REMARKS
CHICAGO-OHARE  MOCLDY    71  67  87 N9        29.95R
CHICAGO-MIDWAY MOCLDY    74  68  81 E7        29.94S
AURORA         PTCLDY    70  67  90 NE6       29.96R
LANSING*       CLEAR     69  66  88 CALM      29.94S
WAUKEGAN       CLOUDY    69  66  90 NE5       29.96S
DUPAGE AIRPORT CLOUDY    70  66  87 NE7       29.95S
KANKAKEE*      PTCLDY    69  66  90 CALM      29.94S
WHEELING       MOCLDY    70  66  87 N5        29.97S
MORRIS*        PTCLDY    69  67  95 CALM      29.93S FOG
NORTHERLY ISL    N/A     74  65  73 NE13        N/A
$$

LMZ740>746-300400-
SOUTHERN LAKE MICHIGAN

STATION/POSITION SKY/WX   TEMP    WIND        PRES    VSBY  WAVE
                          AIR SEA DIR/SP/G                  HT/PER
                          (F)     (DEG/KT/KT) (MB)    (MI)  (FT/S)
SOUTHERN BUOY              73 74   70/ 12/ 14 1014.0          3/ 4
WILMETTE HARBOR            73 72  100/  8/ 10   N/A           3/ 6
HARRISON CRIB              74      90/ 11/ 12   N/A
BURNHAM HARBOR             74      70/  9/ 12   N/A
CALUMET HARBOR             73      50/  5/  9 1013.4S
BURNS HARBOR               71      90/  7/  9 1014.2S
MICHIGAN CITY              71      50/  6/  6   N/A
MICHIGAN CITY 6N           75 76   70/ 14/ 16   N/A           3/ 5
ST. JOSEPH                 73 75   40/ 10/ 12 1013.6S         2
$$

ILZ025>027-034>036-040-047-049-050-058-095>099-300400-
WEST-CENTRAL ILLINOIS

CITY           SKY/WX    TMP DP  RH WIND       PRES   REMARKS
QUINCY         CLEAR     71  67  87 CALM      29.95R
GALESBURG*     CLEAR     68  66  94 CALM      29.94S
MACOMB*        PTCLDY    66  65  96 W5        29.97R
JACKSONVILLE*  CLEAR     69  66  92 NW3       29.95R
PITTSFIELD*    CLEAR     69  67  93 CALM      29.96R
$$

ILZ028>032-037-038-041>044-048-051>054-059>061-300400-
CENTRAL ILLINOIS

CITY           SKY/WX    TMP DP  RH WIND       PRES   REMARKS
PONTIAC        CLEAR     70  70 100 NE3       29.94S FOG
BLOOMINGTON    CLEAR     73  68  84 CALM      29.94S
DECATUR        CLEAR     75  66  73 NW7       29.94R
PEORIA         PTCLDY    72  68  87 SW6       29.92F
LACON*         PTCLDY    67  66  96 CALM      29.94R
LINCOLN*       CLEAR     73  68  86 CALM      29.94R
SPRINGFIELD    CLEAR     73  68  84 N5        29.94R
TAYLORVILLE    CLEAR     69  67  94 MISG      29.95R
$$

ILZ033-039-045-046-055>057-062-063-300400-
EAST-CENTRAL ILLINOIS

CITY           SKY/WX    TMP DP  RH WIND       PRES   REMARKS
CHAMPAIGN      PTCLDY    71  67  87 W5        29.93S
MATTOON        PTCLDY    72  68  87 W3        29.94R
PARIS*         CLEAR     69  69  98 CALM      29.94R
$$

ILZ079-100>102-300400-
SOUTHWEST ILLINOIS

CITY           SKY/WX    TMP DP  RH WIND       PRES   REMARKS
ALTON          PTCLDY    72  68  88 CALM      29.94R
BELLEVILLE     CLOUDY    73  73 100 CALM      29.93R
CAHOKIA*       CLOUDY    77  71  82 CALM      29.93R
SPARTA*        CLOUDY    75  71  86 NW12      29.96R
$$

ILZ064>066-069>071-074>076-080>082-084>086-088>090-092>094-300400-
SOUTH-CENTRAL ILLINOIS

CITY           SKY/WX    TMP DP  RH WIND       PRES   REMARKS
CARBONDALE     MOCLDY    76  73  91 CALM      29.93R
CAIRO*         CLOUDY    72  72  99 CALM      29.95R
EFFINGHAM*     CLEAR     71  71 100 CALM      29.96R
MARION         CLOUDY    75  73  94 CALM      29.94R
MT. VERNON     CLOUDY    73  70  88 CALM      29.95R
CENTRALIA*     CLOUDY    76  74  96 CALM      29.93R
SALEM*         PTCLDY    74  71  90 CALM      29.94R
METROPOLIS*    CLOUDY    74  73  97 CALM      29.95R FOG
$$

ILZ067-068-072-073-078-083-087-091-300400-
SOUTHEAST ILLINOIS

CITY           SKY/WX    TMP DP  RH WIND       PRES   REMARKS
LAWRENCEVILLE  PTCLDY    74  71  91 MISG        N/A
FLORA*         CLOUDY    73  71  93 CALM      29.94R
FAIRFIELD*     CLOUDY    74  74  98 CALM      29.94R
HARRISBURG*    MOCLDY    75  75 100 E3        29.94R FOG
ROBINSON*      MOCLDY    70  68  95 CALM      29.94R
CARMI*         CLOUDY    74  74 100 CALM      29.94R
$$

ABBREVIATIONS USED IN REMARKS
   TC - TEMPERATURE IN CELSIUS
  WCI - WIND CHILL INDEX
   HX - HEAT INDEX
  VSB - VISIBILITY
$$




USA.gov is the U.S. government's official web portal to all federal, state and local government web resources and services.